752 
ASUS46 KSEW 270810
RWRWA 

WASHINGTON REGIONAL WEATHER ROUNDUP
NATIONAL WEATHER SERVICE SEATTLE WA
100 AM PDT WED AUG 27 2014

NOTE:"FAIR" INDICATES FEW OR NO CLOUDS BELOW 12,000 FEET WITH NO 
SIGNIFICANT WEATHER AND/OR OBSTRUCTIONS TO VISIBILITY.

WAZ505-507>509-270900-
SEATTLE, TACOMA, EVERETT, AND VICINITY
  
CITY           SKY/WX    TMP DP  RH WIND       PRES   REMARKS
EVERETT        CLEAR     65  56  72 N6        30.02R                  
BOEING FIELD   CLEAR     70  55  59 CALM      29.99R                  
RENTON         CLEAR     69  60  73 CALM      29.99R                  
SEATAC AIRPORT CLEAR     71  53  52 N9        30.01R                  
JBLM-MCCHORD   CLEAR     64  57  78 W2        30.00S                  
PUYALLUP       NOT AVBL                                               
JBLM-FT LEWIS  CLEAR     68  58  70 W3        30.00R                  
TACOMA NARROWS CLEAR     68  56  65 W3        30.00R                  
$$
 
WAZ001-503-506-510-514-515-270900-
NORTH INTERIOR
  
CITY           SKY/WX    TMP DP  RH WIND       PRES   REMARKS
BELLINGHAM     CLEAR     65  60  84 S6        29.98S                  
FRIDAY HARBOR  CLEAR     53  51  93 CALM      29.99S                  
EASTSOUND      CLEAR     59  55  88 S3        29.96S                  
PORT ANGELES   CLEAR     56  54  93 NW7       30.00F                  
NAS WHIDBEY    PTCLDY    59  54  83 S6        30.01R                  
BURLINGTON     CLEAR     59  55  88 S5        30.00S                  
$$
 
WAZ020-022-039-040-504-511-512-270900-
SOUTHWEST INTERIOR
  
CITY           SKY/WX    TMP DP  RH WIND       PRES   REMARKS
SHELTON        CLEAR     60  56  86 W6        29.99R                  
OLYMPIA        CLEAR     62  55  77 CALM      30.00S                  
CHEHALIS       FAIR      63  61  94 CALM      30.01R                  
KELSO          CLEAR     66  57  72 N3        30.04S                  
VANCOUVER      CLEAR     73  55  53 VRB3      29.97R                  
SCAPPOOSE, OR  CLEAR     73  53  49 N6        29.97R                  
PORTLAND, OR   CLEAR     73  57  57 N6        29.98R                  
$$
 
WAZ021-516-517-270900-
WASHINGTON COAST
  
CITY           SKY/WX    TMP DP  RH WIND       PRES   REMARKS
FORKS          CLOUDY    57  57 100 N3        30.03S FOG              
HOQUIAM        CLOUDY    57  56  96 W7        30.03S                  
ASTORIA, OR    CLOUDY    58  57  97 CALM      30.04R                  
$$
 
WAZ019-023-024-040-518-519-270900-
CASCADE MOUNTAINS AND COLUMBIA GORGE
  
CITY           SKY/WX    TMP DP  RH WIND       PRES   REMARKS
STAMPEDE PASS  NOT AVBL                                               
TROUTDALE, OR  CLEAR     69  56  62 CALM      29.97R                  
THE DALLES, OR CLEAR     72  49  44 E5        29.94R                  
$$

WAZ026-027-041>044-520-521-270900-
EAST SLOPES
  
CITY           SKY/WX    TMP DP  RH WIND       PRES   REMARKS
OMAK           CLEAR     68  49  50 W10       29.97R                  
WENATCHEE      CLEAR     72  50  45 W3        29.96S                  
ELLENSBURG     CLEAR     63  53  70 CALM      30.00S                  
YAKIMA         CLEAR     63  56  78 W7        29.98R                  
$$

WAZ028-034-035-270900-
COLUMBIA BASIN
  
CITY           SKY/WX    TMP DP  RH WIND       PRES   REMARKS
EPHRATA        CLEAR     67  46  47 CALM      29.96S                  
MOSES LAKE     CLEAR     66  50  56 CALM      29.97R                  
PASCO          CLEAR     65  52  62 E3        29.94S                  
HERMISTON, OR  CLEAR     58  47  66 CALM      29.95R                  
$$

WAZ036>038-270900-
NORTHEAST WASHINGTON
  
CITY           SKY/WX    TMP DP  RH WIND       PRES   REMARKS
SPOKANE GEIGER CLEAR     67  44  43 SE3       30.03S                  
SPOKANE FELTS  CLEAR     62  46  55 NE3       30.03S                  
FAIRCHILD AFB  CLEAR     65  43  44 SW3       30.04S                  
COEURDALENE,ID CLEAR     57  48  72 CALM      30.04S                  
DEER PARK      CLEAR     54  45  71 CALM      30.03S                  
$$

WAZ029>033-270900-
SOUTHEAST WASHINGTON
  
CITY           SKY/WX    TMP DP  RH WIND       PRES   REMARKS
PULLMAN        CLEAR     53  39  59 CALM      30.07S                  
LEWISTON, ID   CLEAR     67  44  43 SE3       30.01R                  
WALLA WALLA    CLEAR     70  44  39 SE5       29.99R                  
PENDLETON, OR  CLEAR     65  42  43 SE12      29.99S                  
$$